This is the latest recevied weather packets stored in our database for station/object DG2GGP-11. If no packets are shown the sender has not sent any weather packets the latest 10 day(s).
| Time | Temp. | Humidity | Pressure | Rain* | Wind** | Luminosity | Snow |
|---|---|---|---|---|---|---|---|
| 1777792757 | 17.22° C | 67% | 1017.2 hPa | 0 mm | - | 41 W/m² | - |
| 1777792156 | 16.11° C | 70% | 1017.2 hPa | 0 mm | - | 15 W/m² | - |
| 1777791557 | 15° C | 72% | 1017.2 hPa | 0 mm | - | 21 W/m² | - |
| 1777790957 | 14.44° C | 73% | 1017.1 hPa | 0 mm | - | 15 W/m² | - |
| 1777790357 | 13.33° C | 75% | 1017.2 hPa | 0 mm | - | 16 W/m² | - |
| 1777789757 | 12.78° C | 76% | 1017.1 hPa | 0 mm | - | 11 W/m² | - |
| 1777789157 | 12.78° C | 77% | 1017 hPa | 0 mm | - | 9 W/m² | - |
| 1777788557 | 12.22° C | 78% | 1016.8 hPa | 0 mm | - | 10 W/m² | - |
| 1777787956 | 11.67° C | 79% | 1016.7 hPa | 0 mm | - | 10 W/m² | - |
| 1777787356 | 11.11° C | 79% | 1016.7 hPa | 0 mm | - | 7 W/m² | - |
| 1777786757 | 10.56° C | 80% | 1016.7 hPa | 0 mm | - | 6 W/m² | - |
| 1777786157 | 10.56° C | 81% | 1016.7 hPa | 0 mm | - | 5 W/m² | - |
| 1777785557 | 10° C | 82% | 1016.7 hPa | 0 mm | - | 4 W/m² | - |
| 1777784956 | 9.44° C | 83% | 1016.7 hPa | 0 mm | - | 3 W/m² | - |
| 1777784356 | 9.44° C | 83% | 1016.6 hPa | 0 mm | - | 3 W/m² | - |
| 1777783757 | 8.89° C | 83% | 1016.7 hPa | 0 mm | - | 2 W/m² | - |
| 1777783156 | 8.89° C | 84% | 1016.9 hPa | 0 mm | - | 2 W/m² | - |
| 1777782557 | 8.33° C | 84% | 1016.9 hPa | 0 mm | - | 1 W/m² | - |
| 1777781957 | 8.33° C | 84% | 1016.9 hPa | 0 mm | - | 0 W/m² | - |
| 1777781357 | 8.33° C | 84% | 1016.8 hPa | 0 mm | - | 0 W/m² | - |
| 1777780757 | 8.33° C | 84% | 1016.8 hPa | 0 mm | - | 0 W/m² | - |
| 1777780157 | 8.33° C | 84% | 1016.9 hPa | 0 mm | - | 0 W/m² | - |
| 1777779557 | 8.89° C | 83% | 1016.9 hPa | 0 mm | - | 0 W/m² | - |
| 1777778957 | 8.89° C | 84% | 1016.9 hPa | 0 mm | - | 0 W/m² | - |
| 1777778356 | 8.89° C | 83% | 1017 hPa | 0 mm | - | 0 W/m² | - |
* Rain latest hour (hover to see other rain measurements)
** Current wind speed in m/s (hover to see current wind gust speed)